Weather reports worldwide

Advertisment
Nottingham/Watnall, United Kingdom (3354): temperature & dewpoint: 24.09.2020 16:00:00 - 30.09.2020 16:00:00 (BST)Nottingham/Watnall, United Kingdom (3354): temperature -20cm & temperature -100cm: 24.09.2020 16:00:00 - 30.09.2020 16:00:00 (BST)Nottingham/Watnall, United Kingdom (3354): wind speed & gusts: 24.09.2020 16:00:00 - 30.09.2020 16:00:00 (BST)Nottingham/Watnall, United Kingdom (3354): wind direction: 24.09.2020 16:00:00 - 30.09.2020 16:00:00 (BST)Nottingham/Watnall, United Kingdom (3354): reduced air pressure: 24.09.2020 16:00:00 - 30.09.2020 16:00:00 (BST)Nottingham/Watnall, United Kingdom (3354): visibility: 24.09.2020 16:00:00 - 30.09.2020 16:00:00 (BST)Nottingham/Watnall, United Kingdom (3354): sunshine duration: 24.09.2020 16:00:00 - 30.09.2020 16:00:00 (BST)Nottingham/Watnall, United Kingdom (3354): precipitation: 24.09.2020 16:00:00 - 30.09.2020 16:00:00 (BST)
Date & Time tt [°C] td [°C] tt -20cm [°C] tt -100cm [°C] ff [km/h] ff [kn] fx [km/h] fx [kn] dd ppp [hPa] vv [km] sd [min] rr [mm]
30.09.2020 16:00:00 13,5 11,8 - - 18 10 - - S 1001,6 7 0 0,2
30.09.2020 15:00:00 13,8 11,2 - - 15 8 - - S 1002,4 30 0 0,0
30.09.2020 14:00:00 13,2 10,5 - - 13 7 - - S 1003,5 29 0 0,0
30.09.2020 13:00:00 12,7 10,1 - - 15 8 - - S 1004,4 28 0 0,0
30.09.2020 12:00:00 12,0 10,1 - - 13 7 - - S 1005,3 9 0 0,4
30.09.2020 11:00:00 11,2 9,5 - - 16 9 - - S 1006,1 12 0 0,2
30.09.2020 10:00:00 11,3 9,0 - - 13 7 - - S 1006,8 13 0 0,0
30.09.2020 09:00:00 10,6 8,5 - - 13 7 - - S 1007,7 30 0 0,0
30.09.2020 08:00:00 9,4 7,7 - - 5 3 - - S 1008,4 30 0 0,0
30.09.2020 07:00:00 8,0 6,7 - - 8 4 - - SSE 1009,0 27 0 0,0
30.09.2020 06:00:00 8,0 6,6 - - 9 5 - - S 1009,3 25 0 0,0
30.09.2020 05:00:00 7,8 6,6 - - 8 4 - - SSE 1009,8 17 0 0,0
30.09.2020 04:00:00 8,6 7,1 - - 8 4 - - SSW 1010,6 22 0 0,0
30.09.2020 03:00:00 8,4 6,8 - - 5 3 - - S 1011,5 15 0 0,0
30.09.2020 02:00:00 9,7 7,4 - - 5 3 - - SSW 1012,2 17 0 0,0
30.09.2020 01:00:00 11,0 8,5 - - 9 5 - - SSW 1012,7 17 - 0,0
30.09.2020 00:00:00 11,1 8,5 - - 9 5 - - S 1013,2 18 0 0,0
29.09.2020 23:00:00 10,5 7,8 - - 5 3 - - SSE 1013,6 23 0 0,0
29.09.2020 22:00:00 11,0 7,7 - - 5 3 - - ESE 1014,3 27 0 0,0
29.09.2020 21:00:00 10,2 6,5 - - 0 0 - - N 1014,6 15 0 0,0
29.09.2020 20:00:00 10,6 6,3 - - 4 2 - - SW 1014,8 30 0 0,0
29.09.2020 19:00:00 13,1 6,2 - - 5 3 - - W 1014,8 40 6 0,0
29.09.2020 18:00:00 16,0 6,1 - - 2 1 - - W 1014,6 35 24 0,0
29.09.2020 17:00:00 15,6 6,5 - - 0 0 - - N 1014,8 40 0 0,0
29.09.2020 16:00:00 16,0 6,6 - - 9 5 - - NW 1015,2 35 12 0,0
29.09.2020 15:00:00 16,5 5,4 - - 5 3 - - SW 1015,2 30 42 0,0
29.09.2020 14:00:00 17,0 5,8 - - 4 2 - - N 1015,7 45 60 0,0
29.09.2020 13:00:00 16,4 7,2 - - 5 3 - - NE 1016,1 35 60 0,0
29.09.2020 12:00:00 15,5 8,0 - - 8 4 - - NE 1016,3 45 60 0,0
29.09.2020 11:00:00 14,5 7,8 - - 8 4 - - NNE 1016,6 40 60 0,0
29.09.2020 10:00:00 13,1 8,0 13,0 14,4 11 6 - - N 1016,5 40 48 0,0
29.09.2020 09:00:00 10,9 8,0 - - 8 4 - - N 1016,3 40 6 0,0
29.09.2020 08:00:00 10,2 8,5 - - 8 4 - - N 1015,8 30 0 0,0
29.09.2020 07:00:00 10,8 9,4 - - 9 5 - - NNW 1015,5 23 0 0,0
29.09.2020 06:00:00 11,8 10,3 - - 8 4 - - NNW 1015,0 18 0 0,0
29.09.2020 05:00:00 12,3 11,1 - - 5 3 - - N 1014,7 13 0 0,0
29.09.2020 04:00:00 12,4 11,4 - - 5 3 - - N 1014,5 9 0 0,0
29.09.2020 03:00:00 12,8 12,0 - - 8 4 - - N 1014,3 10 0 0,0
29.09.2020 02:00:00 13,3 12,7 - - 8 4 - - N 1014,0 7 0 0,2
29.09.2020 01:00:00 13,6 13,1 - - 5 3 - - W 1014,0 1,7 - 2,2
29.09.2020 00:00:00 13,7 13,0 - - 4 2 - - W 1013,9 1,3 0 1,0
28.09.2020 23:00:00 14,2 12,5 - - 8 4 - - W 1013,7 3,1 0 0,0
28.09.2020 22:00:00 14,4 11,6 - - 9 5 - - WSW 1013,7 19 0 0,0
28.09.2020 21:00:00 14,7 11,5 - - 5 3 - - SW 1013,3 23 0 0,0
28.09.2020 20:00:00 14,8 11,5 - - 4 2 - - SW 1013,0 23 0 0,0
28.09.2020 19:00:00 15,0 11,1 - - 4 2 - - SW 1012,7 18 6 0,0
28.09.2020 18:00:00 15,9 10,3 - - 4 2 - - WSW 1012,2 35 48 0,0
28.09.2020 17:00:00 16,3 9,9 - - 9 5 - - WSW 1011,9 40 42 0,0
28.09.2020 16:00:00 15,4 9,6 - - 8 4 - - WSW 1011,9 40 6 0,0
28.09.2020 15:00:00 14,7 8,8 - - 8 4 - - SW 1012,2 40 0 0,0
28.09.2020 14:00:00 13,7 7,5 - - 13 7 - - W 1012,5 40 18 0,0
28.09.2020 13:00:00 13,1 7,3 - - 9 5 - - WSW 1012,7 35 0 0,0
28.09.2020 12:00:00 13,2 5,6 - - 13 7 - - W 1012,9 40 60 0,0
28.09.2020 11:00:00 10,0 6,6 - - 8 4 - - WSW 1013,2 22 24 0,0
28.09.2020 10:00:00 8,8 5,5 12,4 14,7 9 5 - - W 1013,5 29 42 0,0
28.09.2020 09:00:00 6,1 4,2 - - 4 2 - - W 1013,6 25 54 0,0
28.09.2020 08:00:00 4,4 3,4 - - 8 4 - - W 1013,5 25 24 0,0
28.09.2020 07:00:00 3,8 2,6 - - 8 4 - - W 1013,4 19 0 0,0
28.09.2020 06:00:00 3,8 2,9 - - 5 3 - - W 1013,4 19 0 0,0
28.09.2020 05:00:00 4,5 3,1 - - 8 4 - - WSW 1013,7 14 0 0,0
28.09.2020 04:00:00 5,7 4,1 - - 13 7 - - WNW 1014,1 20 0 0,0
28.09.2020 03:00:00 5,8 4,5 - - 11 6 - - WNW 1014,7 21 0 0,0
28.09.2020 02:00:00 6,6 5,1 - - 11 6 - - WNW 1015,0 19 0 0,0
28.09.2020 01:00:00 6,6 5,1 - - 8 4 - - NW 1015,0 17 - 0,0
28.09.2020 00:00:00 6,8 5,2 - - 8 4 - - WNW 1015,4 15 0 0,0
27.09.2020 23:00:00 7,2 5,4 - - 8 4 - - NW 1015,6 18 0 0,0
27.09.2020 22:00:00 7,6 5,6 - - 8 4 - - WNW 1015,7 18 0 0,0
27.09.2020 21:00:00 7,4 5,6 - - 5 3 - - NW 1015,5 25 0 0,0
27.09.2020 20:00:00 7,6 5,2 - - 5 3 - - N 1015,3 29 0 0,0
27.09.2020 19:00:00 9,4 5,5 - - 5 3 - - N 1015,0 35 18 0,0
27.09.2020 18:00:00 11,2 5,2 - - 13 7 - - N 1014,8 35 60 0,0
27.09.2020 17:00:00 12,1 5,6 - - 15 8 - - N 1014,7 45 60 0,0
27.09.2020 16:00:00 12,6 6,3 - - 15 8 - - NNE 1014,7 40 60 0,0
27.09.2020 15:00:00 12,1 6,1 - - 22 12 - - N 1015,0 30 18 0,0
27.09.2020 14:00:00 11,1 5,8 - - 18 10 - - NNW 1015,2 35 0 0,0
27.09.2020 13:00:00 10,8 5,4 - - 18 10 - - NNW 1015,3 30 0 0,0
27.09.2020 12:00:00 11,2 5,6 - - 16 9 - - N 1015,3 28 6 0,0
27.09.2020 11:00:00 10,9 5,1 - - 22 12 48 26 N 1015,3 27 18 0,0
27.09.2020 10:00:00 9,9 5,0 - - 26 14 - - N 1015,0 26 0 0,0
27.09.2020 09:00:00 9,3 4,5 - - 22 12 46 25 N 1015,2 24 0 0,0
27.09.2020 08:00:00 9,1 4,5 - - 18 10 - - N 1014,8 25 0 0,0
27.09.2020 07:00:00 9,1 4,4 - - 24 13 48 26 N 1014,6 25 0 0,0
27.09.2020 06:00:00 9,2 4,3 - - 24 13 - - N 1014,7 24 0 0,0
27.09.2020 05:00:00 9,2 4,5 - - 18 10 - - N 1014,8 22 0 0,0
27.09.2020 04:00:00 9,4 4,3 - - 16 9 - - N 1014,8 23 0 0,0
27.09.2020 03:00:00 9,5 4,3 - - 22 12 46 25 N 1014,8 22 0 0,0
27.09.2020 02:00:00 9,6 4,6 - - 18 10 - - N 1015,3 21 0 0,0
27.09.2020 01:00:00 9,7 4,7 - - 18 10 - - N 1015,3 23 - 0,0
27.09.2020 00:00:00 9,9 4,3 - - 18 10 - - N 1015,4 26 0 0,0
26.09.2020 23:00:00 9,8 4,8 - - 21 11 - - NNW 1015,4 26 0 0,0
26.09.2020 22:00:00 10,0 4,7 - - 21 11 - - N 1015,3 27 0 0,0
26.09.2020 21:00:00 10,1 4,8 - - 22 12 - - N 1015,4 29 0 0,0
26.09.2020 20:00:00 10,0 5,4 - - 22 12 52 28 N 1015,1 30 0 0,0
26.09.2020 19:00:00 11,0 5,2 - - 22 12 52 28 N 1014,4 29 0 0,0
26.09.2020 18:00:00 11,3 5,6 - - 16 9 - - N 1014,1 27 0 0,0
26.09.2020 17:00:00 11,0 6,6 - - 18 10 - - N 1013,9 21 0 0,0
26.09.2020 16:00:00 11,3 5,8 - - 21 11 48 26 NNW 1013,5 35 0 0,0
26.09.2020 15:00:00 11,4 4,9 - - 26 14 - - NNW 1012,9 30 0 0,0
26.09.2020 14:00:00 11,5 4,5 - - 22 12 46 25 N 1012,7 40 0 0,0
26.09.2020 13:00:00 11,6 3,9 - - 24 13 46 25 NNW 1012,5 35 18 0,0
26.09.2020 12:00:00 10,7 3,2 - - 22 12 - - NNW 1012,5 45 30 0,0
26.09.2020 11:00:00 9,4 2,5 - - 24 13 46 25 NNW 1012,3 50 48 0,0
26.09.2020 10:00:00 8,7 2,3 - - 26 14 - - NNW 1012,0 50 30 0,0
26.09.2020 09:00:00 6,6 1,2 - - 18 10 - - NNW 1011,9 55 36 0,0
26.09.2020 08:00:00 5,2 0,6 - - 11 6 - - WNW 1011,7 55 18 0,0
26.09.2020 07:00:00 4,9 0,1 - - 11 6 - - W 1011,6 55 0 0,0
26.09.2020 06:00:00 5,5 0,1 - - 11 6 - - WNW 1011,4 55 0 0,0
26.09.2020 05:00:00 6,0 0,0 - - 15 8 - - NW 1011,1 40 0 0,0
26.09.2020 04:00:00 6,0 0,2 - - 11 6 - - NW 1011,0 45 0 0,0
26.09.2020 03:00:00 6,7 0,4 - - 15 8 - - NW 1010,9 45 0 0,0
26.09.2020 02:00:00 7,2 0,6 - - 15 8 - - NW 1010,7 40 0 0,0
26.09.2020 01:00:00 7,1 1,4 - - 13 7 - - NW 1010,6 40 - 0,0
26.09.2020 00:00:00 8,0 1,3 - - 21 11 - - NNW 1010,2 40 0 0,0
25.09.2020 23:00:00 8,5 2,6 - - 21 11 - - NNW 1010,1 50 0 0,0
25.09.2020 22:00:00 8,7 3,7 - - 18 10 - - NW 1010,3 65 0 0,0
25.09.2020 21:00:00 9,6 4,4 - - 21 11 - - NNW 1009,5 70 0 0,0
25.09.2020 20:00:00 9,9 5,2 - - 22 12 50 27 NNW 1009,1 75 0 0,2
25.09.2020 19:00:00 10,6 5,7 - - 18 10 54 29 NW 1008,4 5 6 0,2
25.09.2020 18:00:00 12,1 4,0 - - 24 13 54 29 NW 1007,1 65 36 0,0
25.09.2020 17:00:00 13,5 2,9 - - 26 14 54 29 NW 1006,3 75 54 0,0
25.09.2020 16:00:00 13,6 2,5 - - 31 17 57 31 NNW 1005,6 50 42 0,0
25.09.2020 15:00:00 13,3 2,7 - - 28 15 55 30 NW 1005,0 55 18 0,0
25.09.2020 14:00:00 12,4 3,7 - - 24 13 54 29 NNW 1004,7 65 12 0,0
25.09.2020 13:00:00 12,4 4,3 - - 26 14 50 27 NW 1003,8 50 12 0,0
25.09.2020 12:00:00 11,0 3,8 - - 22 12 52 28 NW 1003,6 60 30 0,0
25.09.2020 11:00:00 11,2 4,1 - - 24 13 48 26 NW 1002,7 50 60 0,0
25.09.2020 10:00:00 9,9 4,5 13,9 15,2 24 13 48 26 NNW 1002,0 40 60 0,0
25.09.2020 09:00:00 8,3 4,2 - - 24 13 50 27 NW 1001,2 45 18 0,0
25.09.2020 08:00:00 7,7 3,7 - - 18 10 - - NW 1000,4 40 0 0,0
25.09.2020 07:00:00 8,4 4,2 - - 22 12 48 26 NNW 999,5 40 0 0,0
25.09.2020 06:00:00 8,4 4,4 - - 26 14 46 25 NNW 998,7 40 0 0,0
25.09.2020 05:00:00 8,4 5,1 - - 24 13 48 26 NNW 997,8 45 0 0,0
25.09.2020 04:00:00 8,5 6,2 - - 22 12 - - NNW 997,4 40 0 0,0
25.09.2020 03:00:00 8,5 6,6 - - 21 11 - - NNW 996,8 35 0 0,0
25.09.2020 02:00:00 8,2 6,5 - - 16 9 - - NNW 996,5 40 0 0,0
25.09.2020 01:00:00 7,9 6,0 - - 15 8 - - NNW 996,2 45 - 0,0
25.09.2020 00:00:00 7,9 5,8 - - 13 7 - - N 995,7 40 0 0,0
24.09.2020 23:00:00 8,0 6,1 - - 13 7 - - NNW 995,4 27 0 0,0
24.09.2020 22:00:00 7,8 6,0 - - 11 6 - - NNW 995,1 45 0 0,0
24.09.2020 21:00:00 7,0 5,9 - - 8 4 - - NNW 994,5 50 0 0,0
24.09.2020 20:00:00 8,0 6,3 - - 4 2 - - NW 994,1 60 0 0,4
24.09.2020 19:00:00 8,6 6,5 - - 13 7 - - SE 994,3 18 0 0,2
24.09.2020 18:00:00 11,3 5,0 - - 8 4 - - SSE 993,6 60 18 0,0
24.09.2020 17:00:00 9,9 5,2 - - 5 3 - - S 993,6 55 0 0,2
24.09.2020 16:00:00 12,5 3,7 - - 13 7 - - SW 993,5 45 12 0,0

tt = temperature
td = dewpoint
tt -20cm = temperature -20cm
tt -100cm = temperature -100cm
ff = wind speed
fx = gusts
dd = wind direction
ppp = reduced air pressure
vv = visibility
sd = sunshine duration
rr = precipitation

Next stations